Regional Weather Roundup
Issued by NWS

Home | Current Version | Previous Version | Graphics & Text | Print | Product List | Glossary Off
Versions: 1 2 3 4 5 6 7 8 9 10 11 12 13 14 15 16 17 18 19 20 21 22 23 24 25 26 27 28 29 30 31 32 33 34 35 36 37 38 39 40 41 42 43 44 45 46 47 48 49 50

000
ASUS43 KTOP 291559
RWRKS

WEATHER ROUNDUP FOR KANSAS
NATIONAL WEATHER SERVICE GOODLAND KS
1100 AM CDT FRI AUG 29 2014

NOTE:  "FAIR" INDICATES FEW OR NO CLOUDS BELOW 12,000 FEET WITH NO
SIGNIFICANT WEATHER AND/OR OBSTRUCTIONS TO VISIBILITY.

KSZ001>006-013>018-027>032-041>047-291700-
NORTHWEST KANSAS

CITY           SKY/WX    TMP DP  RH WIND       PRES   REMARKS
GOODLAND       SUNNY     76  54  46 NW9       30.00S
HAYS           MOSUNNY   72  59  64 NW8       29.91S
HILL CITY      SUNNY     73  61  65 NW9       29.91S
RUSSELL        MOSUNNY   74  62  66 W10       29.88S
$$

KSZ061>065-074>080-084>089-291700-
SOUTHWEST KANSAS

CITY           SKY/WX    TMP DP  RH WIND       PRES   REMARKS
DODGE CITY     SUNNY     76  55  48 W9        29.94F
GARDEN CITY    SUNNY     72  54  53 NW12      29.96F
GREAT BEND     SUNNY     73  61  64 W7        29.90S
LIBERAL        SUNNY     77  54  44 NW8       30.00S
$$

KSZ066>073-081>083-090>101-291700-
SOUTHEAST KANSAS

CITY           SKY/WX    TMP DP  RH WIND       PRES   REMARKS
CHANUTE        CLOUDY    72  68  87 SW5       29.91F
COFFEYVILLE    PTSUNNY   75  69  81 S6        29.92S
HUTCHINSON     SUNNY     77  65  66 S7        29.89S
NEWTON         MOSUNNY   72  63  73 S8        29.93S
PARSONS        PTSUNNY   72  68  87 VRB3      29.93S
WICHITA INTL   MOSUNNY   77  63  61 W7        29.90S
WICHITA JABRA  MOSUNNY   76  65  68 SW8       29.91R
WINFIELD       PTSUNNY   76  67  73 SW12      29.94R
$$

KSZ007>012-019>026-033>040-048>060-102>105-291700-
NORTHEAST KANSAS

CITY           SKY/WX    TMP DP  RH WIND       PRES   REMARKS
CONCORDIA      LGT RAIN  72  67  84 SW6       29.88R
EMPORIA        CLOUDY    75  67  76 S7        29.90S
LAWRENCE       CLOUDY    78  69  73 SW5       29.88S
MANHATTAN      CLOUDY    74  67  78 S9        29.86F
OLATHE IND     CLOUDY    73  65  75 SW7       29.90S
OLATHE EXE     LGT RAIN  71  66  84 S3        29.89R
SALINA         MOSUNNY   76  64  66 S12       29.87S
TOPEKA BILLARD CLOUDY    73  69  87 W3        29.88F
TOPEKA FORBES  CLOUDY    72  68  87 SW8       29.88F
$$


USA.gov is the U.S. government's official web portal to all federal, state and local government web resources and services.